TimeBST,TemperatureF,Dew PointF,Humidity,Sea Level PressureIn,VisibilityMPH,Wind Direction,Wind SpeedMPH,Gust SpeedMPH,PrecipitationIn,Events,Conditions,WindDirDegrees,DateUTC
3:50 AM,55,51,80,30.03,14,SSE,4.6,,,,Mostly Cloudy,150,2013-09-27 02:50:00
6:20 AM,55.4,51.8,88,30.01,6.2,Variable,3.5,-,N/A,,Partly Cloudy,0,2013-09-27 05:20:00
6:50 AM,52,49,86,30.03,12,ESE,4.6,,,,,120,2013-09-27 05:50:00
6:50 AM,53.6,50.0,88,30.01,6.2,Variable,3.5,-,N/A,,Scattered Clouds,0,2013-09-27 05:50:00
7:20 AM,51.8,50.0,94,30.01,6.2,Variable,3.5,-,N/A,,Scattered Clouds,0,2013-09-27 06:20:00
7:50 AM,53.6,51.8,94,30.04,6.2,SE,4.6,-,N/A,,Scattered Clouds,140,2013-09-27 06:50:00
8:20 AM,55.4,51.8,88,30.01,6.2,SE,4.6,-,N/A,,Partly Cloudy,140,2013-09-27 07:20:00
8:50 AM,55.4,51.8,88,30.01,6.2,SSE,9.2,-,N/A,,Partly Cloudy,160,2013-09-27 07:50:00
9:20 AM,57.2,51.8,82,30.01,6.2,SSE,10.4,-,N/A,,Partly Cloudy,150,2013-09-27 08:20:00
9:50 AM,58,52,73,30.03,10,SE,11.5,,,,,140,2013-09-27 08:50:00
9:50 AM,59.0,51.8,77,30.01,6.2,SSE,11.5,-,N/A,,Partly Cloudy,150,2013-09-27 08:50:00
10:20 AM,59.0,53.6,82,30.01,6.2,SSE,13.8,-,N/A,,Partly Cloudy,150,2013-09-27 09:20:00
10:50 AM,59.0,51.8,77,30.01,6.2,SSE,11.5,-,N/A,,Partly Cloudy,150,2013-09-27 09:50:00
11:20 AM,62.6,51.8,68,30.01,-9999.0,SSE,11.5,-,N/A,,Clear,150,2013-09-27 10:20:00
11:50 AM,64.4,51.8,64,30.01,6.2,SSE,10.4,-,N/A,,Partly Cloudy,160,2013-09-27 10:50:00
12:20 PM,64.4,50.0,59,30.01,6.2,SSE,11.5,-,N/A,,Partly Cloudy,160,2013-09-27 11:20:00
12:50 PM,65,51,49,30.00,15,SE,12.7,,,,,140,2013-09-27 11:50:00
12:50 PM,66.2,53.6,64,30.01,6.2,SSE,10.4,-,N/A,,Partly Cloudy,150,2013-09-27 11:50:00
1:20 PM,64.4,50.0,59,29.98,-9999.0,SSE,10.4,-,N/A,,Clear,150,2013-09-27 12:20:00
1:50 PM,68.0,51.8,56,29.98,6.2,SSE,9.2,-,N/A,,Partly Cloudy,150,2013-09-27 12:50:00
2:20 PM,68.0,51.8,56,29.98,-9999.0,SSE,11.5,-,N/A,,Clear,150,2013-09-27 13:20:00
2:50 PM,66.2,51.8,60,29.98,6.2,SE,10.4,-,N/A,,Partly Cloudy,140,2013-09-27 13:50:00
3:20 PM,66.2,51.8,60,29.95,6.2,SSE,11.5,-,N/A,,Partly Cloudy,150,2013-09-27 14:20:00
3:50 PM,65,51,52,29.96,18,SE,10.4,,,,Mostly Cloudy,130,2013-09-27 14:50:00
3:50 PM,68.0,53.6,60,29.95,6.2,SSE,10.4,-,N/A,,Partly Cloudy,150,2013-09-27 14:50:00
4:20 PM,64.4,51.8,64,29.95,6.2,SSE,11.5,-,N/A,,Partly Cloudy,150,2013-09-27 15:20:00
4:50 PM,66.2,51.8,60,29.95,6.2,SE,10.4,-,N/A,,Partly Cloudy,130,2013-09-27 15:50:00
5:20 PM,64.4,53.6,68,29.95,6.2,ESE,10.4,-,N/A,,Partly Cloudy,120,2013-09-27 16:20:00
6:20 PM,62.6,53.6,72,29.95,6.2,SE,5.8,-,N/A,,Partly Cloudy,130,2013-09-27 17:20:00
6:50 PM,60,52,68,29.95,11,SE,6.9,,,,Scattered Clouds,130,2013-09-27 17:50:00
6:50 PM,60.8,51.8,72,29.95,6.2,SE,5.8,-,N/A,,Partly Cloudy,130,2013-09-27 17:50:00
7:20 PM,60.8,53.6,77,29.95,6.2,SE,5.8,-,N/A,,Partly Cloudy,130,2013-09-27 18:20:00
9:50 PM,58,50,67,29.95,11,SE,6.9,,,,Overcast,130,2013-09-27 20:50:00